Total_Precipitation_Accumulation
2.00 1.90 1.42 0.83 0.67 0.51 0.45 0.48 0.47 0.40 0.43 0.54 0.57 0.60 0.65 0.67 0.66 0.69 0.73 0.73 0.72 0.83 1.11 1.24 1.32 1.63 1.90 2.05 2.22 2.38 2.51 2.61 2.88 3.07 3.07 2.97 2.83 2.59 2.47 2.45 2.34 2.24 2.19 2.27
1.74 1.32 0.81 0.62 0.61 0.59 0.56 0.57 0.54 0.44 0.40 0.53 0.57 0.59 0.55 0.55 0.64 0.74 0.74 0.78 0.82 0.82 1.00 1.13 1.20 1.37 1.59 1.82 2.05 2.28 2.41 2.52 2.55 2.62 2.87 3.02 3.08 2.91 2.64 2.48 2.39 2.27 2.19 2.22
1.30 0.81 0.63 0.73 0.71 0.70 0.60 0.51 0.46 0.46 0.47 0.55 0.57 0.64 0.52 0.52 0.58 0.65 0.69 0.74 0.76 0.80 0.88 0.99 1.11 1.33 1.44 1.58 1.83 2.12 2.29 2.43 2.47 2.51 2.78 3.02 3.19 3.03 2.71 2.38 2.24 2.25 2.22 2.21
1.14 0.71 0.68 0.80 0.66 0.58 0.57 0.35 0.35 0.40 0.58 0.68 0.62 0.84 0.58 0.54 0.57 0.62 0.68 0.67 0.68 0.73 0.76 0.81 0.94 1.12 1.25 1.40 1.59 1.77 1.98 2.15 2.35 2.44 2.53 2.61 2.75 2.76 2.51 2.38 2.29 2.33 2.33 2.28
1.09 0.76 0.76 0.80 0.56 0.47 0.47 0.32 0.37 0.41 0.56 0.65 0.51 0.73 0.63 0.43 0.50 0.61 0.70 0.69 0.68 0.73 0.75 0.76 0.90 1.08 1.15 1.24 1.49 1.64 1.72 1.91 2.14 2.29 2.35 2.50 2.53 2.57 2.64 2.60 2.50 2.41 2.39 2.31
0.81 0.66 0.78 0.67 0.51 0.48 0.49 0.47 0.53 0.54 0.76 0.83 0.41 0.55 0.61 0.46 0.53 0.56 0.57 0.61 0.67 0.73 0.80 0.85 0.97 1.07 1.10 1.17 1.34 1.55 1.55 1.64 1.81 2.07 2.29 2.34 2.32 2.37 2.43 2.43 2.38 2.37 2.37 2.33
1.03 0.78 0.66 0.61 0.71 0.63 0.61 0.79 1.11 1.16 1.07 0.61 0.28 0.43 0.61 0.46 0.47 0.50 0.52 0.55 0.60 0.69 0.74 0.83 0.95 0.95 1.00 1.11 1.22 1.38 1.48 1.54 1.62 1.80 2.01 2.19 2.29 2.31 2.33 2.35 2.32 2.23 2.15 2.07
1.02 1.05 0.66 0.57 0.70 0.72 0.58 0.64 0.85 0.84 0.52 0.34 0.27 0.43 0.53 0.43 0.38 0.35 0.36 0.44 0.52 0.61 0.62 0.66 0.79 0.86 0.94 1.05 1.11 1.15 1.21 1.26 1.32 1.41 1.56 1.77 2.03 2.16 2.09 2.09 2.07 2.04 1.97 1.95
0.70 0.69 0.42 0.37 0.41 0.48 0.62 0.59 0.46 0.73 0.54 0.44 0.35 0.37 0.39 0.31 0.30 0.30 0.33 0.42 0.52 0.61 0.65 0.64 0.71 0.77 0.82 0.95 1.07 1.05 1.05 1.09 1.16 1.19 1.28 1.42 1.65 1.82 1.86 1.89 1.83 1.74 1.72 1.77
0.49 0.55 0.38 0.33 0.42 0.44 0.45 0.46 0.58 1.00 0.89 0.62 0.37 0.35 0.49 0.39 0.31 0.33 0.40 0.45 0.54 0.66 0.67 0.63 0.67 0.73 0.74 0.82 0.95 0.97 0.98 1.00 1.12 1.16 1.18 1.27 1.37 1.47 1.64 1.73 1.62 1.56 1.54 1.57
0.38 0.55 0.47 0.41 0.45 0.39 0.35 0.48 0.58 0.70 0.70 0.73 0.49 0.48 0.53 0.46 0.39 0.39 0.42 0.49 0.60 0.65 0.68 0.71 0.72 0.75 0.79 0.83 0.87 0.87 0.93 0.97 1.08 1.11 1.08 1.09 1.16 1.21 1.30 1.39 1.44 1.39 1.40 1.38
0.30 0.48 0.46 0.31 0.22 0.21 0.31 0.36 0.49 0.81 0.63 0.53 0.54 0.56 0.45 0.39 0.38 0.39 0.41 0.46 0.53 0.54 0.62 0.69 0.70 0.71 0.79 0.82 0.81 0.78 0.82 0.87 0.99 1.02 0.97 0.97 1.02 1.08 1.13 1.16 1.25 1.27 1.27 1.27
0.47 0.68 0.68 0.49 0.43 0.40 0.45 0.33 0.35 0.61 0.81 0.63 0.62 0.61 0.42 0.33 0.33 0.35 0.40 0.44 0.43 0.43 0.46 0.53 0.58 0.59 0.62 0.65 0.66 0.73 0.72 0.70 0.75 0.78 0.76 0.77 0.79 0.87 0.96 1.00 1.03 1.08 1.12 1.16
0.72 0.73 0.60 0.57 0.51 0.59 0.56 0.32 0.31 0.77 1.05 0.57 0.40 0.45 0.39 0.36 0.40 0.41 0.42 0.42 0.37 0.36 0.37 0.43 0.52 0.49 0.52 0.57 0.58 0.64 0.62 0.59 0.64 0.66 0.64 0.66 0.68 0.71 0.77 0.84 0.84 0.86 0.91 0.98
0.64 0.65 0.36 0.36 0.40 0.56 0.51 0.34 0.32 0.53 0.52 0.55 0.36 0.34 0.40 0.42 0.49 0.48 0.45 0.39 0.31 0.29 0.31 0.36 0.47 0.52 0.51 0.55 0.57 0.57 0.61 0.65 0.68 0.70 0.68 0.66 0.66 0.66 0.70 0.76 0.78 0.76 0.77 0.77
0.58 0.64 0.43 0.39 0.36 0.47 0.41 0.24 0.23 0.27 0.27 0.31 0.26 0.35 0.36 0.39 0.44 0.46 0.45 0.36 0.28 0.26 0.27 0.30 0.38 0.54 0.51 0.56 0.64 0.65 0.68 0.75 0.77 0.78 0.73 0.71 0.67 0.65 0.63 0.64 0.66 0.67 0.68 0.68
0.63 0.76 0.90 0.67 0.33 0.45 0.44 0.29 0.27 0.27 0.27 0.28 0.36 0.37 0.30 0.36 0.43 0.43 0.38 0.29 0.25 0.24 0.24 0.28 0.33 0.49 0.56 0.60 0.71 0.79 0.81 0.85 0.83 0.83 0.76 0.70 0.66 0.64 0.62 0.60 0.61 0.64 0.67 0.70
0.50 0.75 1.14 0.95 0.59 0.66 0.46 0.31 0.29 0.30 0.29 0.27 0.29 0.26 0.26 0.31 0.35 0.33 0.28 0.26 0.22 0.21 0.21 0.24 0.30 0.36 0.48 0.52 0.60 0.71 0.78 0.89 0.89 0.87 0.84 0.80 0.79 0.80 0.82 0.82 0.84 0.85 0.82 0.85
0.26 0.65 1.08 0.97 0.71 0.41 0.23 0.19 0.28 0.35 0.35 0.27 0.22 0.19 0.16 0.19 0.26 0.32 0.26 0.24 0.25 0.23 0.21 0.22 0.26 0.28 0.34 0.42 0.48 0.57 0.71 0.88 1.00 1.06 1.06 1.06 1.07 1.11 1.14 1.16 1.16 1.16 1.16 1.17
0.21 0.47 0.99 0.94 0.78 0.41 0.24 0.12 0.14 0.26 0.43 0.22 0.16 0.16 0.15 0.16 0.28 0.35 0.31 0.27 0.26 0.25 0.24 0.23 0.23 0.26 0.30 0.40 0.47 0.60 0.80 0.98 1.11 1.17 1.21 1.23 1.29 1.34 1.31 1.27 1.23 1.16 1.13 1.15
0.36 0.62 0.85 0.78 0.75 0.41 0.25 0.13 0.11 0.39 0.52 0.23 0.18 0.19 0.19 0.25 0.32 0.28 0.26 0.28 0.28 0.29 0.32 0.33 0.34 0.38 0.41 0.47 0.57 0.74 0.87 1.01 1.08 1.10 1.14 1.15 1.13 1.14 1.10 1.06 1.02 0.98 0.94 0.89
0.35 0.50 0.55 0.59 0.80 0.58 0.29 0.21 0.37 0.51 0.32 0.24 0.19 0.19 0.21 0.22 0.20 0.18 0.17 0.19 0.23 0.26 0.33 0.42 0.49 0.53 0.53 0.57 0.66 0.75 0.80 0.84 0.84 0.84 0.84 0.85 0.79 0.72 0.71 0.73 0.74 0.73 0.72 0.69
0.40 0.53 0.57 0.60 0.66 0.52 0.39 0.42 0.46 0.37 0.31 0.23 0.21 0.19 0.19 0.19 0.18 0.15 0.13 0.13 0.14 0.15 0.19 0.24 0.33 0.39 0.39 0.40 0.45 0.51 0.49 0.47 0.47 0.47 0.50 0.50 0.49 0.47 0.45 0.48 0.52 0.54 0.57 0.59
0.37 0.33 0.43 0.50 0.47 0.37 0.35 0.35 0.34 0.31 0.31 0.27 0.23 0.22 0.20 0.21 0.19 0.17 0.14 0.13 0.12 0.12 0.14 0.16 0.17 0.20 0.21 0.22 0.24 0.27 0.26 0.23 0.24 0.29 0.33 0.37 0.41 0.42 0.42 0.44 0.47 0.51 0.55 0.58
0.32 0.32 0.41 0.47 0.38 0.33 0.29 0.27 0.28 0.26 0.24 0.22 0.21 0.20 0.20 0.21 0.21 0.19 0.18 0.17 0.16 0.16 0.15 0.16 0.18 0.19 0.20 0.20 0.21 0.21 0.22 0.21 0.21 0.23 0.26 0.30 0.36 0.43 0.45 0.45 0.48 0.55 0.58 0.69
0.31 0.39 0.52 0.52 0.37 0.40 0.35 0.26 0.24 0.23 0.22 0.22 0.23 0.23 0.23 0.22 0.24 0.21 0.21 0.20 0.20 0.20 0.18 0.18 0.19 0.22 0.25 0.27 0.29 0.28 0.28 0.27 0.26 0.27 0.27 0.31 0.36 0.41 0.46 0.48 0.49 0.54 0.58 0.64